Weather History for KONP - May, 2009

Change the Weather History Date:

Wednesday, May 13, 2009

  Actual Average (KEUG) Record (KEUG)
Temperature  
Mean Temperature 46 °F 55 °F  
Max Temperature 50 °F 67 °F 92 °F (1939)
Min Temperature 41 °F 43 °F 30 °F (1913)
Degree Days  
Heating Degree Days 20 10  
Month to date heating degree days 147  
Since 1 July heating degree days 4489  
Cooling Degree Days 0 0  
Month to date cooling degree days 0  
Year to date cooling degree days 0  
Moisture  
Dew Point 43 °F    
Average Humidity 90    
Maximum Humidity 100    
Minimum Humidity 81    
Precipitation  
Precipitation 0.31 in 0.08 in 1.20 in (1902)
Month to date precipitation 1.17  
Year to date precipitation 21.79  
Sea Level Pressure  
Sea Level Pressure 30.09 in    
Wind  
Wind Speed 9 mph (SSE)    
Max Wind Speed 29 mph    
Max Gust Speed 43 mph    
Visibility 8 miles    
Events Rain    
T = Trace of Precipitation, MM = Missing Value Source: NWS Daily Summary

Daily Weather History Graph

Daily Weather History Graph

Search for Another Location

Airport or City:

Trip Planner

Search our weather history database for the weather conditions in past years. The results will help you decide how hot, cold, wet, or windy it might be!

Date:

Astronomy

May. 13, 2009 Rise Set
Actual Time 5:50 AM PDT 8:35 PM PDT
Civil Twilight 5:16 AM PDT 9:09 PM PDT
Nautical Twilight 4:34 AM PDT 9:51 PM PDT
Astronomical Twilight 3:45 AM PDT 10:41 PM PDT
Moon 12:22 AM PDT (5/13) 9:01 AM PDT (5/13)
Length of Visible Light 15h 52m
Length of Day
14h 45m
Waning Gibbous, 81% of the Moon is Illuminated
May 13
Waning Gibbous
May 17
Last Quarter
May 24
New
May 30
First Quarter
Jun 7
Full

Hourly Weather History & Observations

Time (PDT) Temp. Windchill Dew Point Humidity Pressure Visibility Wind Dir Wind Speed Gust Speed Precip Events Conditions
12:10 AM 41.0 °F 36.4 °F 39.2 °F 93% 30.28 in 10.0 mi East 6.9 mph - N/A   Clear
12:30 AM 41.0 °F 37.1 °F 39.2 °F 93% 30.28 in 10.0 mi East 5.8 mph - N/A   Clear
12:50 AM 41.0 °F 38.0 °F 39.2 °F 93% 30.28 in 10.0 mi East 4.6 mph - N/A   Clear
1:11 AM 41.0 °F 37.1 °F 39.2 °F 93% 30.27 in 10.0 mi ESE 5.8 mph - N/A   Clear
1:31 AM 41.0 °F 35.8 °F 39.2 °F 93% 30.25 in 10.0 mi ESE 8.1 mph - N/A   Clear
2:10 AM 41.0 °F 35.8 °F 39.2 °F 93% 30.25 in 10.0 mi East 8.1 mph - N/A   Clear
2:31 AM 41.0 °F 37.1 °F 39.2 °F 93% 30.24 in 10.0 mi East 5.8 mph - N/A   Clear
2:52 AM 41.0 °F 36.4 °F 39.2 °F 93% 30.24 in 10.0 mi East 6.9 mph - N/A   Clear
3:10 AM 41.0 °F 36.4 °F 39.2 °F 93% 30.23 in 10.0 mi East 6.9 mph - N/A   Clear
3:31 AM 41.0 °F 36.4 °F 39.2 °F 93% 30.22 in 10.0 mi East 6.9 mph - N/A   Clear
3:50 AM 41.0 °F 36.4 °F 39.2 °F 93% 30.22 in 10.0 mi East 6.9 mph - N/A   Clear
4:12 AM 41.0 °F 36.4 °F 39.2 °F 93% 30.21 in 10.0 mi East 6.9 mph - N/A   Clear
4:30 AM 41.0 °F 35.8 °F 39.2 °F 93% 30.20 in 10.0 mi East 8.1 mph - N/A   Clear
4:50 AM 41.0 °F 35.8 °F 39.2 °F 93% 30.19 in 10.0 mi East 8.1 mph - N/A   Clear
5:11 AM 42.8 °F 38.0 °F 39.2 °F 87% 30.18 in 10.0 mi East 8.1 mph - N/A   Mostly Cloudy
5:31 AM 42.8 °F - 39.2 °F 87% 30.17 in 10.0 mi Calm Calm - N/A   Mostly Cloudy
5:50 AM 42.8 °F - 39.2 °F 87% 30.16 in 10.0 mi Calm Calm - N/A   Mostly Cloudy
6:10 AM 42.8 °F 39.3 °F 39.2 °F 87% 30.15 in 10.0 mi East 5.8 mph - N/A   Overcast
6:31 AM 42.8 °F 40.1 °F 39.2 °F 87% 30.14 in 10.0 mi East 4.6 mph - N/A   Overcast
6:50 AM 42.8 °F 41.1 °F 39.2 °F 87% 30.14 in 10.0 mi East 3.5 mph - N/A   Overcast
7:10 AM 44.6 °F 42.2 °F 39.2 °F 81% 30.15 in 10.0 mi East 4.6 mph - N/A   Overcast
7:32 AM 44.6 °F 40.7 °F 39.2 °F 81% 30.14 in 10.0 mi East 6.9 mph - N/A   Overcast
7:50 AM 44.6 °F 41.4 °F 39.2 °F 81% 30.14 in 10.0 mi East 5.8 mph - N/A   Overcast
8:10 AM 44.6 °F 42.2 °F 39.2 °F 81% 30.13 in 10.0 mi East 4.6 mph - N/A   Overcast
8:30 AM 46.4 °F 42.9 °F 41.0 °F 81% 30.12 in 10.0 mi ESE 6.9 mph - N/A   Light Drizzle
8:50 AM 46.4 °F 42.9 °F 41.0 °F 81% 30.12 in 10.0 mi ESE 6.9 mph - N/A   Light Drizzle
9:10 AM 46.4 °F 42.9 °F 41.0 °F 81% 30.11 in 10.0 mi ESE 6.9 mph - N/A   Drizzle
9:30 AM 46.4 °F 42.9 °F 42.8 °F 87% 30.11 in 10.0 mi ESE 6.9 mph - N/A   Light Drizzle
9:50 AM 46.4 °F 42.9 °F 42.8 °F 87% 30.11 in 10.0 mi ESE 6.9 mph - N/A Rain Light Rain
10:10 AM 46.4 °F 43.5 °F 42.8 °F 87% 30.11 in 10.0 mi SSE 5.8 mph - N/A Rain Rain
10:30 AM 46.4 °F 43.5 °F 44.6 °F 93% 30.12 in 10.0 mi South 5.8 mph - 0.01 in   Drizzle
10:50 AM 48.2 °F - 44.6 °F 87% 30.11 in 10.0 mi South 8.1 mph - 0.01 in   Drizzle
11:10 AM 46.4 °F 43.5 °F 42.8 °F 87% 30.11 in 10.0 mi South 5.8 mph - N/A   Drizzle
11:31 AM 46.4 °F 43.5 °F 44.6 °F 93% 30.10 in 10.0 mi South 5.8 mph - 0.01 in   Light Drizzle
11:50 AM 48.2 °F - 44.6 °F 87% 30.10 in 10.0 mi South 5.8 mph - 0.01 in   Light Drizzle
12:10 PM 48.2 °F - 46.4 °F 93% 30.09 in 10.0 mi South 6.9 mph - N/A Rain Light Rain
12:30 PM 48.2 °F - 46.4 °F 93% 30.08 in 10.0 mi South 9.2 mph - 0.01 in   Drizzle
12:50 PM 48.2 °F - 46.4 °F 93% 30.07 in 7.0 mi South 9.2 mph - 0.02 in Rain Light Rain
1:10 PM 48.2 °F - 44.6 °F 87% 30.06 in 10.0 mi South 9.2 mph - N/A Rain Light Rain
1:30 PM 48.2 °F - 44.6 °F 87% 30.06 in 10.0 mi South 9.2 mph 16.1 mph 0.02 in Rain Light Rain
1:52 PM 48.2 °F - 44.6 °F 87% 30.06 in 5.0 mi South 9.2 mph - 0.05 in Rain Light Rain
2:10 PM 48.2 °F - 46.4 °F 93% 30.05 in 7.0 mi South 9.2 mph - 0.02 in Rain Light Rain
2:31 PM 48.2 °F - 46.4 °F 93% 30.05 in 7.0 mi SSW 11.5 mph 16.1 mph 0.05 in Rain Light Rain
2:50 PM 48.2 °F - 44.6 °F 87% 30.03 in 7.0 mi SSW 15.0 mph 25.3 mph 0.06 in Rain Light Rain
3:10 PM 48.2 °F - 46.4 °F 93% 30.02 in 7.0 mi South 11.5 mph 19.6 mph N/A Rain Light Rain
3:30 PM 48.2 °F - 46.4 °F 93% 30.00 in 7.0 mi South 15.0 mph 18.4 mph 0.03 in Rain Light Rain
3:51 PM 48.2 °F - 46.4 °F 93% 29.99 in 7.0 mi South 13.8 mph 24.2 mph 0.03 in   Drizzle
4:10 PM 48.2 °F - 46.4 °F 93% 29.97 in 7.0 mi South 17.3 mph 29.9 mph N/A Rain Light Rain
4:32 PM 48.2 °F - 46.4 °F 93% 29.97 in 7.0 mi SSW 25.3 mph 34.5 mph N/A Rain Light Rain
4:51 PM 48.2 °F - 46.4 °F 93% 29.96 in 5.0 mi SSW 23.0 mph 35.7 mph 0.01 in Rain Light Rain
5:10 PM 48.2 °F - 46.4 °F 93% 29.95 in 4.0 mi SSW 24.2 mph 34.5 mph 0.01 in Rain Light Rain
5:31 PM 48.2 °F - 46.4 °F 93% 29.94 in 2.5 mi SSW 28.8 mph 40.3 mph 0.03 in Rain Rain
5:51 PM 48.2 °F - 46.4 °F 93% 29.94 in 1.8 mi SSW 23.0 mph 35.7 mph 0.07 in Rain Rain
6:10 PM 48.2 °F - 46.4 °F 93% 29.94 in 2.0 mi SSW 23.0 mph 33.4 mph 0.01 in Rain Light Rain
6:31 PM 48.2 °F - 46.4 °F 93% 29.93 in 2.5 mi SSW 27.6 mph 35.7 mph 0.02 in Rain Light Rain
6:50 PM 48.2 °F - 48.2 °F 100% 29.92 in 2.5 mi SSW 24.2 mph 42.6 mph 0.03 in Rain Light Rain
7:10 PM 50.0 °F - 48.2 °F 94% 29.91 in 2.0 mi SSW 24.2 mph 34.5 mph N/A Rain Light Rain
7:30 PM 50.0 °F - 48.2 °F 94% 29.92 in 3.0 mi SSW 25.3 mph 35.7 mph N/A Rain Light Rain
7:51 PM 50.0 °F - 48.2 °F 94% 29.92 in 1.5 mi SSW 26.5 mph 35.7 mph N/A Rain Light Rain
8:10 PM 50.0 °F - 48.2 °F 94% 29.93 in 1.5 mi SSW 28.8 mph 35.7 mph 0.01 in Rain Light Rain
8:30 PM 50.0 °F - 48.2 °F 94% 29.90 in 1.2 mi SSW 27.6 mph 41.4 mph 0.02 in Rain Rain
8:51 PM 50.0 °F - 48.2 °F 94% 29.90 in 2.0 mi SSW 31.1 mph 39.1 mph 0.03 in Rain Light Rain
9:10 PM 50.0 °F - 48.2 °F 94% 29.92 in 3.0 mi SSW 26.5 mph 41.4 mph N/A Rain Light Rain
9:30 PM 50.0 °F - 48.2 °F 94% 29.93 in 2.0 mi SSW 29.9 mph 41.4 mph 0.03 in Rain Rain
9:52 PM 50.0 °F - 48.2 °F 94% 29.94 in 2.0 mi SSW 32.2 mph 41.4 mph 0.07 in Rain Rain
10:10 PM 50.0 °F - 48.2 °F 94% 29.91 in 2.5 mi SSW 27.6 mph 40.3 mph 0.01 in Rain Light Rain
10:30 PM 50.0 °F - 48.2 °F 94% 29.92 in 2.5 mi SSW 27.6 mph 41.4 mph 0.03 in Rain Light Rain
10:50 PM 51.8 °F - 48.2 °F 88% 29.92 in 2.5 mi SSW 27.6 mph 42.6 mph 0.04 in Rain Light Rain
11:11 PM 51.8 °F - 50.0 °F 94% 29.92 in 2.5 mi SSW 28.8 mph 40.3 mph 0.01 in Rain Light Rain
11:30 PM 51.8 °F - 50.0 °F 94% 29.92 in 2.0 mi SSW 33.4 mph 42.6 mph 0.02 in Rain Light Rain